Regional Weather Roundup
Issued by NWS Albany, NY

Home | Current Version | Previous Version | Graphics & Text | Print | Product List | Glossary Off
Versions: 1 2 3 4 5 6 7 8 9 10 11 12 13 14 15 16 17 18 19 20 21 22 23 24 25 26 27 28 29 30 31 32 33 34 35 36 37 38 39 40 41 42 43 44 45 46 47 48 49 50

000
ASUS41 KALY 010410
RWRALY

NEW YORK STATE HOURLY WEATHER ROUNDUP
NATIONAL WEATHER SERVICE ALBANY NY
1200 AM EDT WED JUL 01 2015

NOTE: "FAIR" INDICATES FEW OR NO CLOUDS BELOW 12,000 FEET WITH NO
SIGNIFICANT WEATHER AND/OR NO OBSTRUCTIONS TO VISIBILITY.

NYZ032-033-038>043-046>054-057>066-NYZ062>081-010500-
EAST


CITY           SKY/WX    TMP DP  RH WIND       PRES   REMARKS
ALBANY         CLOUDY    70  60  70 VRB3      29.86S
GLENS FALLS    CLOUDY    61  59  93 CALM      29.87F
POUGHKEEPSIE   CLOUDY    73  65  75 SE5       29.84F
MONTGOMERY     CLOUDY    67  66  97 NE5       29.83F FOG
WHITE PLAINS   CLOUDY    71  68  90 SE9       29.86F
ISLIP          CLOUDY    72  68  87 SE13      29.87F
NEW YORK CITY  CLOUDY    74  68  81 S17G25    29.84F
CENTRAL PARK   CLOUDY    74  68  81 VRB7      29.87F
$$

NYZ005>009-017-018-044>046-055-056-010500-
CENTRAL


CITY           SKY/WX    TMP DP  RH WIND       PRES   REMARKS
FULTON         CLOUDY    66  63  90 VRB6      29.76F
SYRACUSE       CLOUDY    64  64 100 E9        29.77F
ROME           LGT RAIN  64  63  96 E5        29.82F
ELMIRA         MOCLDY    66  63  90 CALM      29.79F
BINGHAMTON     LGT RAIN  62  62 100 S7        29.84F
MONTICELLO     CLOUDY    64  64 100 E6        29.88F
$$

NYZ026>034-041>043-010500-
NORTH


CITY           SKY/WX    TMP DP  RH WIND       PRES   REMARKS
WATERTOWN      MOCLDY    66  62  87 VRB3      29.75F
FORT DRUM      NOT AVBL
MASSENA        MOCLDY    62  59  90 NE6       29.80F
SARANAC LAKE   CLOUDY    62  58  86 S6        29.84F
PLATTSBURGH    MOCLDY    62  60  93 S6        29.84F
$$

NYZ001>004-010>016-019>021-010500-
WEST


CITY           SKY/WX    TMP DP  RH WIND       PRES   REMARKS
NIAGARA FALLS  CLOUDY    64  60  87 SW7       29.75F
BUFFALO        DRIZZLE   65  61  87 SW6       29.76F
DUNKIRK        CLOUDY    64  61  90 SW6       29.77F
JAMESTOWN      CLOUDY    61  57  88 S6        29.82S
WELLSVILLE     CLOUDY    64  60  87 SW10      29.83S
ROCHESTER      LGT RAIN  67  65  93 CALM      29.76F
PENN YAN       MOCLDY    66  62  87 SW3       29.77F
$$

             KEY
       WCI = WIND CHILL INDEX
       VSB = VISIBILITY
       HX  = HEAT INDEX
$$



USA.gov is the U.S. government's official web portal to all federal, state and local government web resources and services.